Roanoke, VA

2:23 AM EDT on June 26, 2017 (GMT -0400)
Roanoke Regional-Woodrum

Weather History for KROA - January, 2012

Change the Weather History Date:

Sunday, January 29, 2012

  Actual Average Record
Temperature  
Mean Temperature 39 °F 37 °F  
Max Temperature 49 °F 46 °F 75 °F (1975)
Min Temperature 29 °F 28 °F 4 °F (1977)
Degree Days  
Heating Degree Days 26 28  
Month to date heating degree days 691 829  
Since 1 July heating degree days 2052 2439  
Cooling Degree Days 0 0  
Month to date cooling degree days 0 0  
Year to date cooling degree days 0 0  
Moisture  
Dew Point 12 °F    
Average Humidity 36    
Maximum Humidity 53    
Minimum Humidity 19    
Precipitation  
Precipitation 0.00 in 0.10 in 1.05 in (1957)
Month to date precipitation 1.69 2.73  
Year to date precipitation 1.69 2.73  
Snow  
Snow 0.00 in - - ()
Month to date snowfall 0.4  
Since 1 July snowfall 0.4  
Snow Depth 0.00 in    
Sea Level Pressure  
Sea Level Pressure 30.26 in    
Wind  
Wind Speed 10 mph (WSW)    
Max Wind Speed 20 mph    
Max Gust Speed 29 mph    
Visibility 10 miles    
Events      
T = Trace of Precipitation, MM = Missing Value Source: NWS Daily Summary

Daily Weather History Graph

Daily Weather History Graph

Search for Another Location

Airport or City:

Trip Planner

Search our weather history database for the weather conditions in past years. The results will help you decide how hot, cold, wet, or windy it might be!

Date:

Astronomy

Jan. 29, 2012 Rise Set
Actual Time 7:25 AM EST 5:40 PM EST
Civil Twilight 6:58 AM EST 6:08 PM EST
Nautical Twilight 6:26 AM EST 6:39 PM EST
Astronomical Twilight 5:55 AM EST 7:10 PM EST
Moon 10:25 AM EST (1/29) No Moon Set
Length of Visible Light 11h 10m
Length of Day
10h 14m
Waxing Crescent, 36% of the Moon is Illuminated
Jan 29
Waxing Crescent
Jan 30
First Quarter
Feb 7
Full
Feb 14
Last Quarter
Feb 21
New

Hourly Weather History & Observations

Time (EST) Temp. Windchill Dew Point Humidity Pressure Visibility Wind Dir Wind Speed Gust Speed Precip Events Conditions
12:54 AM 37.4 °F 30.3 °F 14.0 °F 38% 30.25 in 10.0 mi WNW 10.4 mph - N/A   Clear
1:54 AM 37.0 °F 29.3 °F 14.0 °F 39% 30.27 in 10.0 mi WNW 11.5 mph 19.6 mph N/A   Clear
2:54 AM 36.0 °F 29.6 °F 14.0 °F 41% 30.28 in 10.0 mi WNW 8.1 mph - N/A   Clear
3:54 AM 35.1 °F 30.1 °F 12.9 °F 40% 30.28 in 10.0 mi West 5.8 mph - N/A   Clear
4:54 AM 34.0 °F 28.0 °F 12.9 °F 42% 30.29 in 10.0 mi WNW 6.9 mph - N/A   Clear
5:54 AM 33.1 °F 26.9 °F 12.0 °F 42% 30.31 in 10.0 mi West 6.9 mph - N/A   Clear
6:54 AM 32.0 °F 28.7 °F 14.0 °F 48% 30.33 in 10.0 mi SW 3.5 mph - N/A   Clear
7:54 AM 28.9 °F 22.8 °F 14.0 °F 54% 30.35 in 10.0 mi West 5.8 mph - N/A   Clear
8:54 AM 35.1 °F 28.6 °F 15.1 °F 44% 30.35 in 10.0 mi WSW 8.1 mph - N/A   Clear
9:54 AM 37.0 °F 28.9 °F 14.0 °F 39% 30.35 in 10.0 mi WSW 12.7 mph - N/A   Clear
10:54 AM 41.0 °F 34.3 °F 14.0 °F 33% 30.35 in 10.0 mi WSW 11.5 mph - N/A   Clear
11:54 AM 43.0 °F 36.4 °F 12.0 °F 28% 30.33 in 10.0 mi SW 12.7 mph - N/A   Clear
12:54 PM 46.0 °F 41.0 °F 12.0 °F 25% 30.28 in 10.0 mi WSW 10.4 mph - N/A   Clear
1:54 PM 46.9 °F - 10.9 °F 23% 30.24 in 10.0 mi SW 12.7 mph 21.9 mph N/A   Clear
2:54 PM 48.0 °F - 8.1 °F 20% 30.20 in 10.0 mi WSW 17.3 mph 24.2 mph N/A   Clear
3:54 PM 48.9 °F - 8.1 °F 19% 30.19 in 10.0 mi WSW 17.3 mph 23.0 mph N/A   Partly Cloudy
4:54 PM 48.0 °F - 9.0 °F 21% 30.18 in 10.0 mi WSW 17.3 mph 24.2 mph N/A   Partly Cloudy
5:54 PM 46.0 °F 40.6 °F 10.0 °F 23% 30.18 in 10.0 mi WSW 11.5 mph - N/A   Clear
6:54 PM 45.0 °F 39.3 °F 10.9 °F 25% 30.20 in 10.0 mi SW 11.5 mph 19.6 mph N/A   Clear
7:54 PM 44.1 °F 39.0 °F 12.0 °F 27% 30.20 in 10.0 mi WSW 9.2 mph 18.4 mph N/A   Clear
8:54 PM 43.0 °F 37.7 °F 12.0 °F 28% 30.19 in 10.0 mi WSW 9.2 mph 19.6 mph N/A   Clear
9:54 PM 42.1 °F 38.4 °F 12.9 °F 31% 30.19 in 10.0 mi WSW 5.8 mph - N/A   Clear
10:54 PM 41.0 °F 36.4 °F 14.0 °F 33% 30.19 in 10.0 mi SW 6.9 mph - N/A   Clear
11:54 PM 42.8 °F 34.5 °F 15.8 °F 34% 30.19 in 10.0 mi WNW 18.4 mph 28.8 mph N/A   Clear